Location: Wayah Bald
(35.1806°N, 83.5603°W)
Time: 11:14:14
(UTC-05:00)

Meteor 1-27 Rocket - Visible Passes

Search period start: 04 December 2016 00:00
Search period end: 14 December 2016 00:00
Orbit: 830 x 910 km, 81.3° (Epoch: 03 December)

Date Brightness Start Highest point End Pass type
(mag) Time Alt. Az. Time Alt. Az. Time Alt. Az.
04 Dec 5.5 17:53:19 10° SW 17:58:36 35° WNW 18:03:50 10° N visible
05 Dec 5.6 17:47:11 10° SW 17:52:25 33° WNW 17:57:36 10° NNW visible
06 Dec 5.6 17:41:05 10° SW 17:46:15 32° WNW 17:51:22 10° NNW visible
